User: anonymous   Login
Location: George Washington National Forest Helicopter Landing Site
(38.6463°N, 79.0851°W)
Time: 10:07:27
(UTC-04:00)
Language:

Explorer 7 - Orbit

View from above orbital plane
View from above orbital plane
View from above satellite
View from above satellite

Ground track
Ground track

The orbit data is extracted from the following two-line orbital elements,

1    22U 59009A   19234.92010657 -.00000042 +00000-0 +20131-4 0  9994
2    22 050.2846 067.2385 0140116 194.4654 165.2263 14.94901850425566
Epoch (UTC): 22 August 2019 22:04:57
Eccentricity: 0.0140116
inclination: 50.2846°
perigee height: 485 km
apogee height: 680 km
right ascension of ascending node: 67.2385°
argument of perigee: 194.4654°
revolutions per day: 14.94901850
mean anomaly at epoch: 165.2263°
orbit number at epoch: 42556

The dashed part of the orbit path shows where the satellite is in the earth's shadow,  

DLR